パンスターズ彗星

364P/PanSTARRS (2013)

English version
Home page
Updated on February 19, 2018

---------------------------------------------------------------------

・ プロフィール

符号 364P/2013 CU129
発見日 2013年2月13日
発見光度 21.0等
発見者 Pan-STARRS 1 telescope (Haleakala)

・ 写真集

・ 軌道要素

Epoch 2013 Aug. 16.0 TT = JDT 2456520.5
T 2013 Aug. 6.93214 TT                                  MPCW
q   0.8001471            (2000.0)            P               Q
n   0.20172262     Peri.  211.97222     -0.21336160     +0.96509134
a   2.8793844      Node    46.20983     -0.84618414     -0.10483534
e   0.7221118      Incl.   12.14766     -0.48831264     -0.24001720
P   4.89
From 159 observations 2013 Feb. 1-2018 Jan. 16, mean residual 0".5.

・ 光度変化

        H = 16.5  G = 0.15                       [   ,-61]  (              〜2013年 6月 6日)
        m1 = 16.0 + 5 logΔ + 25.0 log r(t - 5)  [-61, 73]  (2013年 6月 6日〜2013年10月18日)
        H = 16.5  G = 0.15                       [ 73,   ]  (2013年10月18日〜              )

        ※ 緑色の曲線は、H = 16.5  G = 0.15 の光度曲線です。

---------------------------------------------------------------------

軌道要素はM.P.E.C. 2018-B14に掲載されたものです。
光度グラフはComet for Windowsで作成したものです。

---------------------------------------------------------------------

Copyright(C) Seiichi Yoshida (comet@aerith.net). All rights reserved.